Time,TemperatureF,DewpointF,PressureIn,WindDirection,WindDirectionDegrees,WindSpeedMPH,WindSpeedGustMPH,Humidity,HourlyPrecipIn,Conditions,Clouds,dailyrainin,SoftwareType,DateUTC
2014-01-04 00:03:00,26.6,22.0,30.46,North,1,0.0,0.0,82,0.00,,,0.00,weatherlink.com 1.10,2014-01-04 05:03:00,
2014-01-04 00:18:00,26.7,21.0,30.46,North,355,0.0,1.0,80,0.00,,,0.00,weatherlink.com 1.10,2014-01-04 05:18:00,
2014-01-04 00:33:00,26.9,21.0,30.45,West,274,0.0,0.0,79,0.00,,,0.00,weatherlink.com 1.10,2014-01-04 05:33:00,
2014-01-04 00:48:00,26.9,21.0,30.45,North,355,0.0,1.0,78,0.00,,,0.00,weatherlink.com 1.10,2014-01-04 05:48:00,
2014-01-04 01:03:00,26.5,21.0,30.45,North,355,0.0,0.0,80,0.00,,,0.00,weatherlink.com 1.10,2014-01-04 06:03:00,
2014-01-04 01:18:00,26.7,21.0,30.45,NW,307,0.0,0.0,78,0.00,,,0.00,weatherlink.com 1.10,2014-01-04 06:18:00,
2014-01-04 01:34:00,27.0,21.0,30.45,North,360,0.0,1.0,77,0.00,,,0.00,weatherlink.com 1.10,2014-01-04 06:34:00,
2014-01-04 01:49:00,27.5,20.0,30.45,North,6,0.0,1.0,74,0.00,,,0.00,weatherlink.com 1.10,2014-01-04 06:49:00,
2014-01-04 02:04:00,27.9,20.0,30.45,ENE,73,1.0,5.0,72,0.00,,,0.00,weatherlink.com 1.10,2014-01-04 07:04:00,
2014-01-04 02:19:00,27.9,20.0,30.45,NNW,337,0.0,1.0,73,0.00,,,0.00,weatherlink.com 1.10,2014-01-04 07:19:00,
2014-01-04 02:34:00,28.3,20.0,30.46,NNE,27,0.0,1.0,71,0.00,,,0.00,weatherlink.com 1.10,2014-01-04 07:34:00,
2014-01-04 02:49:00,29.0,21.0,30.46,North,350,0.0,1.0,71,0.00,,,0.00,weatherlink.com 1.10,2014-01-04 07:49:00,
2014-01-04 03:04:00,29.4,20.0,30.46,ENE,74,0.0,2.0,68,0.00,,,0.00,weatherlink.com 1.10,2014-01-04 08:04:00,
2014-01-04 03:19:00,29.9,20.0,30.46,NNE,25,0.0,1.0,67,0.00,,,0.00,weatherlink.com 1.10,2014-01-04 08:19:00,
2014-01-04 03:34:00,30.1,20.0,30.45,NW,311,1.0,4.0,65,0.00,,,0.00,weatherlink.com 1.10,2014-01-04 08:34:00,
2014-01-04 03:49:00,30.1,20.0,30.44,SE,124,0.0,2.0,65,0.00,,,0.00,weatherlink.com 1.10,2014-01-04 08:49:00,
2014-01-04 04:04:00,29.7,19.0,30.44,ENE,65,0.0,2.0,65,0.00,,,0.00,weatherlink.com 1.10,2014-01-04 09:04:00,
2014-01-04 04:19:00,29.4,19.0,30.44,East,94,0.0,1.0,66,0.00,,,0.00,weatherlink.com 1.10,2014-01-04 09:19:00,
2014-01-04 04:34:00,29.3,19.0,30.44,East,98,0.0,3.0,66,0.00,,,0.00,weatherlink.com 1.10,2014-01-04 09:34:00,
2014-01-04 04:49:00,29.0,19.0,30.43,NE,51,0.0,1.0,67,0.00,,,0.00,weatherlink.com 1.10,2014-01-04 09:49:00,
2014-01-04 05:04:00,28.9,19.0,30.44,East,91,0.0,1.0,67,0.00,,,0.00,weatherlink.com 1.10,2014-01-04 10:04:00,
2014-01-04 05:19:00,28.9,19.0,30.44,ENE,58,3.0,3.0,66,0.00,,,0.00,weatherlink.com 1.10,2014-01-04 10:19:00,
2014-01-04 05:34:00,29.0,19.0,30.44,ENE,68,0.0,2.0,65,0.00,,,0.00,weatherlink.com 1.10,2014-01-04 10:34:00,
2014-01-04 05:49:00,29.0,19.0,30.44,SW,229,0.0,1.0,66,0.00,,,0.00,weatherlink.com 1.10,2014-01-04 10:49:00,
2014-01-04 06:04:00,29.1,19.0,30.43,SE,132,0.0,2.0,65,0.00,,,0.00,weatherlink.com 1.10,2014-01-04 11:04:00,
2014-01-04 06:19:00,29.2,19.0,30.43,SE,125,0.0,2.0,65,0.00,,,0.00,weatherlink.com 1.10,2014-01-04 11:19:00,
2014-01-04 06:34:00,29.5,19.0,30.43,NNE,26,0.0,2.0,65,0.00,,,0.00,weatherlink.com 1.10,2014-01-04 11:34:00,
2014-01-04 06:49:00,29.7,18.0,30.43,SE,131,0.0,1.0,63,0.00,,,0.00,weatherlink.com 1.10,2014-01-04 11:49:00,
2014-01-04 07:04:00,29.7,18.0,30.43,NNW,339,0.0,1.0,63,0.00,,,0.00,weatherlink.com 1.10,2014-01-04 12:04:00,
2014-01-04 07:19:00,29.9,18.0,30.45,ESE,118,0.0,2.0,62,0.00,,,0.00,weatherlink.com 1.10,2014-01-04 12:19:00,
2014-01-04 07:34:00,30.2,18.0,30.46,East,84,0.0,1.0,61,0.00,,,0.00,weatherlink.com 1.10,2014-01-04 12:34:00,
2014-01-04 07:50:00,30.4,17.0,30.46,NNE,20,1.0,4.0,59,0.00,,,0.00,weatherlink.com 1.10,2014-01-04 12:50:00,
2014-01-04 08:04:00,30.5,17.0,30.46,East,88,0.0,3.0,58,0.00,,,0.00,weatherlink.com 1.10,2014-01-04 13:04:00,
2014-01-04 08:19:00,30.6,17.0,30.46,SE,141,0.0,2.0,58,0.00,,,0.00,weatherlink.com 1.10,2014-01-04 13:19:00,
2014-01-04 08:34:00,31.4,18.0,30.47,East,86,0.0,3.0,57,0.00,,,0.00,weatherlink.com 1.10,2014-01-04 13:34:00,
2014-01-04 08:49:00,32.2,18.0,30.47,SSE,149,1.0,3.0,55,0.00,,,0.00,weatherlink.com 1.10,2014-01-04 13:49:00,
2014-01-04 09:04:00,33.1,18.0,30.47,NNE,16,0.0,3.0,55,0.00,,,0.00,weatherlink.com 1.10,2014-01-04 14:04:00,
2014-01-04 09:19:00,34.0,20.0,30.48,SSE,168,0.0,2.0,58,0.00,,,0.00,weatherlink.com 1.10,2014-01-04 14:19:00,
2014-01-04 09:34:00,34.9,20.0,30.48,ENE,63,0.0,1.0,55,0.00,,,0.00,weatherlink.com 1.10,2014-01-04 14:34:00,
2014-01-04 09:49:00,35.9,22.0,30.48,ESE,103,0.0,1.0,57,0.00,,,0.00,weatherlink.com 1.10,2014-01-04 14:49:00,
2014-01-04 10:05:00,37.2,24.0,30.48,East,80,0.0,3.0,59,0.00,,,0.00,weatherlink.com 1.10,2014-01-04 15:05:00,
2014-01-04 10:20:00,38.6,25.0,30.48,ENE,67,2.0,4.0,59,0.00,,,0.00,weatherlink.com 1.10,2014-01-04 15:20:00,
2014-01-04 10:35:00,39.3,27.0,30.46,SW,226,0.0,3.0,61,0.00,,,0.00,weatherlink.com 1.10,2014-01-04 15:35:00,
2014-01-04 10:50:00,40.1,28.0,30.46,WNW,300,0.0,2.0,62,0.00,,,0.00,weatherlink.com 1.10,2014-01-04 15:50:00,
2014-01-04 11:05:00,41.2,30.0,30.44,ESE,122,1.0,3.0,65,0.00,,,0.00,weatherlink.com 1.10,2014-01-04 16:05:00,
2014-01-04 11:20:00,41.7,31.0,30.43,NNE,32,1.0,2.0,65,0.00,,,0.00,weatherlink.com 1.10,2014-01-04 16:20:00,
2014-01-04 11:35:00,42.0,32.0,30.42,North,358,0.0,5.0,68,0.00,,,0.00,weatherlink.com 1.10,2014-01-04 16:35:00,
2014-01-04 11:50:00,43.1,33.0,30.41,ESE,122,1.0,4.0,68,0.00,,,0.00,weatherlink.com 1.10,2014-01-04 16:50:00,
2014-01-04 12:05:00,43.9,34.0,30.40,ENE,77,2.0,6.0,67,0.00,,,0.00,weatherlink.com 1.10,2014-01-04 17:05:00,
2014-01-04 12:20:00,44.4,33.0,30.40,ESE,117,2.0,4.0,65,0.00,,,0.00,weatherlink.com 1.10,2014-01-04 17:20:00,
2014-01-04 12:35:00,44.2,34.0,30.39,East,98,0.0,5.0,67,0.00,,,0.00,weatherlink.com 1.10,2014-01-04 17:35:00,
2014-01-04 12:50:00,44.1,34.0,30.39,WSW,251,0.0,3.0,69,0.00,,,0.00,weatherlink.com 1.10,2014-01-04 17:50:00,
2014-01-04 13:05:00,44.0,35.0,30.38,NE,51,0.0,4.0,70,0.00,,,0.00,weatherlink.com 1.10,2014-01-04 18:05:00,
2014-01-04 13:20:00,44.2,35.0,30.37,NW,312,0.0,3.0,71,0.00,,,0.00,weatherlink.com 1.10,2014-01-04 18:20:00,
2014-01-04 13:35:00,44.3,35.0,30.37,WNW,296,2.0,3.0,69,0.00,,,0.00,weatherlink.com 1.10,2014-01-04 18:35:00,
2014-01-04 13:50:00,44.3,35.0,30.36,SE,129,0.0,3.0,71,0.00,,,0.00,weatherlink.com 1.10,2014-01-04 18:50:00,
2014-01-04 14:05:00,45.2,36.0,30.35,NE,44,1.0,2.0,71,0.00,,,0.00,weatherlink.com 1.10,2014-01-04 19:05:00,
2014-01-04 14:20:00,45.1,36.0,30.35,ENE,57,0.0,4.0,71,0.00,,,0.00,weatherlink.com 1.10,2014-01-04 19:20:00,
2014-01-04 14:35:00,44.9,36.0,30.35,NNW,345,0.0,3.0,70,0.00,,,0.00,weatherlink.com 1.10,2014-01-04 19:35:00,
2014-01-04 14:50:00,45.3,36.0,30.35,East,92,0.0,3.0,71,0.00,,,0.00,weatherlink.com 1.10,2014-01-04 19:50:00,
2014-01-04 15:06:00,45.2,36.0,30.34,ENE,61,0.0,4.0,71,0.00,,,0.00,weatherlink.com 1.10,2014-01-04 20:06:00,
2014-01-04 15:21:00,45.2,37.0,30.33,North,351,2.0,3.0,74,0.00,,,0.00,weatherlink.com 1.10,2014-01-04 20:21:00,
2014-01-04 15:36:00,45.1,37.0,30.34,NW,305,0.0,2.0,73,0.00,,,0.00,weatherlink.com 1.10,2014-01-04 20:36:00,
2014-01-04 15:51:00,45.0,37.0,30.35,NNW,327,0.0,2.0,74,0.00,,,0.00,weatherlink.com 1.10,2014-01-04 20:51:00,
2014-01-04 16:06:00,45.1,37.0,30.35,ESE,119,0.0,2.0,74,0.00,,,0.00,weatherlink.com 1.10,2014-01-04 21:06:00,
2014-01-04 16:21:00,45.0,38.0,30.35,NW,316,1.0,2.0,75,0.00,,,0.00,weatherlink.com 1.10,2014-01-04 21:21:00,
2014-01-04 16:36:00,44.7,38.0,30.34,NNE,23,0.0,3.0,76,0.00,,,0.00,weatherlink.com 1.10,2014-01-04 21:36:00,
2014-01-04 16:51:00,44.5,37.0,30.35,East,91,0.0,1.0,76,0.00,,,0.00,weatherlink.com 1.10,2014-01-04 21:51:00,
2014-01-04 17:06:00,44.3,38.0,30.33,ENE,58,0.0,2.0,78,0.00,,,0.00,weatherlink.com 1.10,2014-01-04 22:06:00,
2014-01-04 17:21:00,44.2,38.0,30.32,WNW,292,0.0,1.0,79,0.00,,,0.00,weatherlink.com 1.10,2014-01-04 22:21:00,
2014-01-04 17:36:00,44.1,38.0,30.33,North,358,1.0,1.0,80,0.00,,,0.00,weatherlink.com 1.10,2014-01-04 22:36:00,
2014-01-04 17:51:00,44.1,38.0,30.33,NW,326,0.0,2.0,80,0.00,,,0.00,weatherlink.com 1.10,2014-01-04 22:51:00,
2014-01-04 18:06:00,44.1,39.0,30.33,NE,49,0.0,1.0,81,0.00,,,0.00,weatherlink.com 1.10,2014-01-04 23:06:00,
2014-01-04 18:21:00,44.0,39.0,30.33,North,350,0.0,1.0,82,0.00,,,0.00,weatherlink.com 1.10,2014-01-04 23:21:00,
2014-01-04 18:36:00,44.0,39.0,30.34,ENE,68,2.0,-999.0,82,-99.99,,,0.00,weatherlink.com 1.10,2014-01-04 23:36:00,
2014-01-04 18:51:00,44.0,38.0,30.34,ENE,72,0.0,3.0,80,0.00,,,0.00,weatherlink.com 1.10,2014-01-04 23:51:00,
2014-01-04 19:06:00,43.9,38.0,30.33,East,97,0.0,4.0,80,0.00,,,0.00,weatherlink.com 1.10,2014-01-05 00:06:00,
2014-01-04 19:21:00,43.8,38.0,30.33,NE,34,1.0,2.0,80,0.00,,,0.00,weatherlink.com 1.10,2014-01-05 00:21:00,
2014-01-04 19:36:00,43.7,38.0,30.33,NNW,339,0.0,2.0,79,0.00,,,0.00,weatherlink.com 1.10,2014-01-05 00:36:00,
2014-01-04 19:51:00,43.5,37.0,30.33,North,352,0.0,2.0,79,0.00,,,0.00,weatherlink.com 1.10,2014-01-05 00:51:00,
2014-01-04 20:06:00,43.4,37.0,30.32,WSW,245,0.0,1.0,79,0.00,,,0.00,weatherlink.com 1.10,2014-01-05 01:06:00,
2014-01-04 20:21:00,43.3,37.0,30.32,ESE,113,0.0,1.0,79,0.00,,,0.00,weatherlink.com 1.10,2014-01-05 01:21:00,
2014-01-04 20:36:00,43.3,38.0,30.32,WNW,301,0.0,1.0,80,0.00,,,0.00,weatherlink.com 1.10,2014-01-05 01:36:00,
2014-01-04 20:51:00,43.3,38.0,30.32,NW,308,0.0,1.0,80,0.00,,,0.00,weatherlink.com 1.10,2014-01-05 01:51:00,
2014-01-04 21:06:00,43.1,38.0,30.32,NW,324,0.0,0.0,81,0.00,,,0.00,weatherlink.com 1.10,2014-01-05 02:06:00,
2014-01-04 21:21:00,42.5,37.0,30.31,NW,323,0.0,0.0,82,0.00,,,0.00,weatherlink.com 1.10,2014-01-05 02:21:00,
2014-01-04 21:36:00,42.3,38.0,30.30,ENE,58,0.0,1.0,83,0.00,,,0.00,weatherlink.com 1.10,2014-01-05 02:36:00,
2014-01-04 21:51:00,42.3,38.0,30.30,NE,56,0.0,1.0,83,0.00,,,0.00,weatherlink.com 1.10,2014-01-05 02:51:00,
2014-01-04 22:06:00,41.9,37.0,30.29,West,273,0.0,1.0,84,0.00,,,0.00,weatherlink.com 1.10,2014-01-05 03:06:00,
2014-01-04 22:21:00,41.5,37.0,30.28,NNW,335,0.0,0.0,85,0.00,,,0.00,weatherlink.com 1.10,2014-01-05 03:21:00,
2014-01-04 22:36:00,41.3,37.0,30.27,NNW,334,0.0,1.0,86,0.00,,,0.00,weatherlink.com 1.10,2014-01-05 03:36:00,
2014-01-04 22:51:00,41.7,38.0,30.27,NNW,334,0.0,1.0,86,0.00,,,0.00,weatherlink.com 1.10,2014-01-05 03:51:00,
2014-01-04 23:06:00,41.9,38.0,30.26,North,4,0.0,0.0,86,0.00,,,0.00,weatherlink.com 1.10,2014-01-05 04:06:00,
2014-01-04 23:21:00,42.2,38.0,30.26,ENE,68,0.0,1.0,85,0.00,,,0.00,weatherlink.com 1.10,2014-01-05 04:21:00,
2014-01-04 23:36:00,42.4,38.0,30.25,NNE,15,0.0,1.0,85,0.00,,,0.00,weatherlink.com 1.10,2014-01-05 04:36:00,
2014-01-04 23:51:00,42.7,39.0,30.23,ESE,122,1.0,1.0,86,0.00,,,0.00,weatherlink.com 1.10,2014-01-05 04:51:00,